Total_Precipitation_Accumulation
0.00 0.00 0.00 0.00 0.01 0.02 0.03 0.04 0.08 0.14 0.15 0.16 0.19 0.21 0.23 0.34 0.67 1.26 0.68 0.35 0.20 0.09 0.07 0.06 0.07 0.06 0.07 0.10 0.14 0.15 0.14 0.15 0.17 0.19 0.19 0.16 0.13 0.11 0.11 0.11 0.16 0.21 0.23 0.21 0.17 0.16 0.16 0.16 0.14
0.00 0.00 0.00 0.01 0.01 0.04 0.06 0.08 0.12 0.14 0.18 0.19 0.25 0.25 0.26 0.28 0.30 0.26 0.29 0.28 0.18 0.09 0.07 0.05 0.07 0.07 0.08 0.08 0.12 0.17 0.16 0.15 0.15 0.17 0.16 0.15 0.15 0.15 0.15 0.15 0.18 0.20 0.20 0.17 0.14 0.13 0.14 0.15 0.13
0.00 0.00 0.01 0.01 0.02 0.04 0.09 0.13 0.17 0.17 0.18 0.23 0.37 0.50 0.47 0.43 0.44 0.33 0.28 0.20 0.15 0.08 0.07 0.09 0.09 0.10 0.12 0.10 0.10 0.16 0.18 0.19 0.19 0.20 0.19 0.20 0.20 0.19 0.18 0.19 0.20 0.21 0.22 0.23 0.22 0.20 0.16 0.15 0.15
0.00 0.01 0.01 0.02 0.03 0.06 0.12 0.19 0.23 0.22 0.22 0.22 0.34 0.63 0.55 0.44 0.47 0.45 0.29 0.23 0.20 0.14 0.10 0.11 0.11 0.13 0.16 0.15 0.15 0.17 0.19 0.22 0.24 0.24 0.24 0.24 0.24 0.24 0.23 0.23 0.24 0.24 0.25 0.28 0.30 0.27 0.19 0.16 0.17
0.00 0.01 0.01 0.02 0.04 0.08 0.12 0.18 0.22 0.26 0.31 0.32 0.38 0.68 0.68 0.56 0.59 0.68 0.55 0.39 0.32 0.25 0.22 0.17 0.16 0.15 0.16 0.19 0.24 0.27 0.23 0.24 0.28 0.28 0.26 0.26 0.27 0.26 0.27 0.28 0.29 0.31 0.32 0.33 0.29 0.24 0.19 0.18 0.20
0.00 0.01 0.01 0.02 0.03 0.06 0.14 0.20 0.22 0.32 0.38 0.45 0.58 0.91 1.15 0.99 0.92 0.98 0.95 0.60 0.47 0.38 0.32 0.31 0.25 0.18 0.19 0.24 0.27 0.33 0.37 0.37 0.36 0.35 0.33 0.33 0.31 0.30 0.32 0.33 0.35 0.39 0.42 0.40 0.30 0.24 0.22 0.22 0.21
0.00 0.00 0.01 0.02 0.04 0.10 0.16 0.25 0.27 0.37 0.52 0.62 0.83 1.22 1.34 1.31 1.28 1.08 1.06 0.81 0.54 0.52 0.53 0.50 0.37 0.31 0.32 0.35 0.36 0.41 0.45 0.45 0.45 0.45 0.45 0.43 0.42 0.40 0.39 0.39 0.40 0.44 0.46 0.42 0.34 0.31 0.29 0.27 0.25
0.00 0.00 0.01 0.02 0.06 0.13 0.21 0.26 0.33 0.42 0.62 0.78 0.90 1.30 1.46 1.44 1.24 1.13 1.01 1.01 0.78 0.72 0.74 0.73 0.74 0.66 0.52 0.50 0.56 0.55 0.59 0.56 0.48 0.45 0.47 0.47 0.44 0.42 0.43 0.40 0.45 0.47 0.49 0.45 0.45 0.47 0.44 0.40 0.33
0.00 0.00 0.00 0.02 0.06 0.14 0.24 0.29 0.35 0.41 0.66 0.90 0.84 0.94 1.34 1.17 1.26 1.49 1.32 1.24 1.10 0.94 0.93 0.85 0.91 0.91 0.77 0.69 0.63 0.70 0.74 0.70 0.62 0.53 0.52 0.50 0.58 0.64 0.61 0.53 0.61 0.62 0.64 0.63 0.64 0.63 0.57 0.54 0.46
0.00 0.00 0.01 0.02 0.05 0.12 0.21 0.32 0.42 0.47 0.59 0.81 0.92 0.88 1.06 1.16 1.23 1.46 1.71 1.49 1.29 1.14 1.13 1.09 0.97 0.91 0.87 0.80 0.84 0.92 0.86 0.81 0.73 0.79 0.77 0.80 1.08 1.21 1.01 1.06 1.03 0.98 0.94 0.88 0.83 0.79 0.75 0.67 0.54
0.01 0.01 0.02 0.03 0.05 0.15 0.22 0.31 0.34 0.44 0.64 0.80 0.99 1.05 1.08 1.26 1.46 1.54 1.90 1.82 1.62 1.53 1.34 1.41 1.29 1.13 1.28 1.40 1.25 1.20 1.18 1.18 1.10 1.23 1.26 1.33 1.49 1.48 1.43 1.56 1.40 1.34 1.27 1.23 1.27 1.04 0.83 0.80 0.80
0.01 0.02 0.02 0.04 0.06 0.14 0.21 0.24 0.38 0.54 0.93 1.01 1.29 1.55 1.56 1.45 1.70 1.80 2.13 2.06 2.02 2.00 1.80 1.69 1.71 1.61 1.70 1.98 1.82 1.60 1.47 1.49 1.51 1.62 1.57 1.83 1.91 1.86 1.81 1.88 1.79 1.79 1.77 1.80 1.68 1.52 1.32 1.20 1.07
0.01 0.02 0.02 0.03 0.07 0.15 0.24 0.29 0.41 0.65 0.84 0.94 1.31 1.71 1.77 1.63 1.57 1.75 2.38 2.22 2.19 2.26 2.16 1.91 1.99 2.04 2.16 2.36 2.23 2.01 2.05 1.85 1.78 1.95 1.93 2.06 2.11 2.07 2.14 2.06 2.03 1.93 1.92 1.90 1.78 1.71 1.71 1.63 1.44
0.02 0.03 0.03 0.04 0.06 0.15 0.25 0.33 0.42 0.58 0.54 0.64 0.98 1.25 1.31 1.43 1.54 1.67 2.07 2.23 2.19 2.25 2.33 2.36 2.33 2.39 2.29 2.39 2.37 2.15 2.06 2.15 1.99 1.95 1.99 1.98 2.08 2.29 2.35 2.33 2.28 2.23 2.19 2.27 2.09 1.87 1.99 1.86 1.77
0.02 0.03 0.06 0.07 0.10 0.18 0.25 0.40 0.60 0.77 0.68 0.71 0.88 0.93 1.13 1.34 1.64 1.90 2.07 2.19 2.22 2.19 2.24 2.38 2.42 2.54 2.50 2.46 2.47 2.35 2.22 2.19 2.25 2.29 2.35 2.19 2.15 2.40 2.47 2.65 2.60 2.53 2.46 2.49 2.43 2.27 2.30 2.10 1.99
0.02 0.04 0.08 0.11 0.11 0.14 0.26 0.58 0.83 0.87 0.88 0.87 0.89 0.93 1.05 1.30 1.60 1.76 1.76 1.86 1.87 1.84 2.00 2.18 2.32 2.44 2.69 2.78 2.87 2.73 2.82 2.79 2.70 2.55 2.54 2.40 2.37 2.55 2.79 2.91 2.89 2.88 2.74 2.80 2.88 2.81 2.61 2.47 2.30
0.03 0.06 0.09 0.15 0.12 0.12 0.24 0.61 0.84 0.80 0.92 0.97 0.91 0.82 0.83 1.03 1.30 1.48 1.55 1.61 1.65 1.64 1.99 2.20 2.40 2.63 2.82 3.07 3.29 3.24 3.33 3.23 3.13 3.05 2.94 2.99 3.07 3.04 3.18 3.30 3.33 3.28 3.28 3.25 3.09 3.24 3.06 2.96 2.77
0.07 0.07 0.10 0.13 0.12 0.13 0.26 0.50 0.68 0.78 0.89 0.97 0.91 0.81 0.78 0.89 1.13 1.34 1.45 1.60 1.60 1.71 2.05 2.35 2.59 2.97 3.33 3.44 3.60 3.53 3.64 3.70 3.74 3.86 3.75 3.58 3.65 3.68 3.80 3.78 3.78 3.76 3.79 3.63 3.59 3.60 3.36 3.13 3.07
0.08 0.08 0.13 0.13 0.12 0.15 0.24 0.45 0.67 0.78 0.97 1.09 0.96 0.90 0.95 0.96 1.11 1.36 1.59 1.81 2.07 2.24 2.32 2.49 2.76 3.05 3.26 3.57 3.89 4.04 4.10 4.29 4.41 4.45 4.52 4.52 4.51 4.61 4.67 4.55 4.44 4.27 4.14 3.95 3.85 3.66 3.46 3.21 3.12
0.04 0.08 0.11 0.12 0.14 0.16 0.28 0.47 0.68 0.78 0.89 1.03 1.04 1.00 0.98 1.04 1.14 1.47 1.82 2.27 2.48 2.56 2.57 2.77 3.05 3.29 3.48 3.86 4.31 4.70 4.85 4.94 4.97 4.99 5.19 5.31 5.34 5.49 5.55 5.48 5.26 5.03 4.73 4.26 3.89 3.67 3.49 3.19 3.22
0.04 0.07 0.09 0.13 0.16 0.22 0.37 0.66 0.86 0.89 1.01 1.09 1.12 1.24 1.18 1.22 1.41 1.65 1.98 2.23 2.41 2.50 2.61 2.83 3.22 3.60 4.01 4.49 4.97 5.36 5.63 5.66 5.58 5.31 5.45 5.63 5.57 5.63 5.80 5.76 5.52 5.16 4.59 4.07 3.88 3.77 3.64 3.43 3.34
0.04 0.06 0.07 0.11 0.16 0.25 0.34 0.78 1.15 1.21 1.26 1.18 1.21 1.32 1.25 1.26 1.42 1.66 1.89 2.14 2.25 2.41 2.65 2.86 3.21 3.81 4.27 4.66 5.30 5.83 6.12 6.32 6.43 6.22 5.95 5.77 5.56 5.44 5.33 5.15 4.74 4.33 4.00 3.71 3.60 3.60 3.43 3.39 3.27
0.04 0.04 0.07 0.08 0.11 0.22 0.25 0.58 1.23 1.39 1.49 1.41 1.37 1.41 1.22 1.14 1.30 1.56 1.65 1.88 2.17 2.29 2.42 2.62 3.10 3.69 4.38 5.03 5.59 6.07 6.49 6.71 6.65 6.26 5.87 5.38 5.02 4.61 4.26 3.90 3.63 3.54 3.37 3.16 3.04 2.97 2.89 2.76 2.70
0.03 0.04 0.08 0.11 0.16 0.29 0.27 0.48 1.20 1.63 1.85 1.90 1.61 1.38 1.22 1.14 1.20 1.28 1.35 1.50 1.83 1.95 2.17 2.41 2.79 3.49 4.23 4.87 5.48 5.90 6.26 6.32 6.01 5.49 4.98 4.66 4.28 3.83 3.39 3.15 2.92 2.79 2.62 2.39 2.25 2.22 2.27 2.36 2.39
0.04 0.09 0.27 0.41 0.46 0.44 0.36 0.60 1.31 1.57 1.52 1.49 1.53 1.54 1.36 1.12 1.06 1.14 1.16 1.30 1.51 1.69 1.98 2.35 2.81 3.34 3.79 4.32 4.82 5.12 5.37 5.44 5.35 5.03 4.60 4.29 3.87 3.46 3.01 2.58 2.35 2.11 1.91 1.80 1.73 1.69 1.72 1.84 1.97
0.04 0.12 0.40 0.58 0.61 0.66 0.71 1.06 1.61 1.49 1.23 1.20 1.32 1.37 1.23 1.13 1.10 1.25 1.35 1.45 1.57 1.71 1.88 2.24 2.68 3.05 3.23 3.48 3.88 4.16 4.30 4.37 4.25 4.01 3.67 3.38 3.11 2.85 2.52 2.09 1.73 1.50 1.35 1.29 1.32 1.35 1.39 1.44 1.53
0.06 0.11 0.19 0.25 0.34 0.62 1.01 1.46 1.98 1.91 1.43 1.23 1.25 1.19 1.11 1.12 1.12 1.28 1.42 1.55 1.66 1.72 1.89 2.01 2.22 2.40 2.61 2.82 3.00 3.15 3.19 3.12 3.02 2.81 2.57 2.37 2.18 1.96 1.74 1.52 1.33 1.21 1.15 1.12 1.11 1.11 1.11 1.16 1.25
0.09 0.12 0.16 0.28 0.54 0.87 1.12 1.65 2.36 2.37 1.85 1.47 1.39 1.32 1.18 1.12 1.14 1.24 1.31 1.45 1.53 1.50 1.58 1.66 1.83 1.90 2.02 2.16 2.21 2.14 2.14 2.12 1.97 1.80 1.71 1.57 1.41 1.29 1.23 1.13 1.07 1.02 0.95 0.96 0.99 0.95 0.93 1.01 1.05
0.13 0.14 0.22 0.32 0.42 0.86 1.31 1.99 2.30 2.48 2.31 1.94 1.53 1.29 1.19 1.15 1.11 1.12 1.14 1.20 1.26 1.21 1.23 1.30 1.43 1.62 1.70 1.68 1.69 1.61 1.55 1.43 1.32 1.22 1.19 1.13 1.06 1.03 0.99 0.96 0.93 0.91 0.89 0.87 0.85 0.84 0.82 0.86 0.98
0.13 0.17 0.25 0.46 0.51 0.63 1.11 2.14 2.35 2.65 2.54 2.19 1.78 1.45 1.31 1.25 1.14 1.05 1.00 0.98 0.98 0.96 0.96 1.03 1.11 1.21 1.25 1.25 1.22 1.21 1.16 1.07 1.03 0.99 0.97 1.00 0.96 0.91 0.91 0.91 0.90 0.89 0.91 0.92 0.87 0.79 0.76 0.80 0.88